Flag for Canada Weather past 2 weeks in Rouyn-Noranda, Quebec, Canada

Now
48 °F

Partly cloudy.


Feels Like: 46 °F
Forecast: 42 / 67 °F
Wind: 6 mph from North

Location: Rouyn Airport

Current Time: Jul 2, 2015 at 2:04:32 AM

Latest Report: Jul 2, 2015 at 1:00 AM


Visibility: 15 mi

Pressure: 29.87 "Hg

Humidity: 71%

Dew point: 39 °F

Location of Rouyn-NorandaLocation

Historic Weather in Rouyn-Noranda — Graph

°F

Rouyn-Noranda temperature yesterday

Maximum temperature yesterday: 59 °F (at 7:00 PM)
Minimum temperature yesterday: 46 °F (at 9:00 AM)
Average temperature yesterday: 52 °F

Past Weeks' High & Low Weather Summary

 TemperatureHumidityPressure
High81 °F (Jun 27, 4:00 PM)100% (Jun 19, 3:00 AM)30.18 "Hg (Jun 19, 3:00 AM)
Low34 °F (Jun 19, 5:00 AM)28% (Jun 26, 6:00 PM)29.40 "Hg (Jun 23, 8:00 AM)
Average59 °F72%29.93 "Hg
* Reported Jun 17 1:00 AM — Jul 2 1:00 AM, Rouyn-Noranda, Weather by CustomWeather, © 2015

Note: Actual official high and low records may vary slightly from our data, if they occured in-between our weather recording intervals... More about our weather records

Advertising

Rouyn-Noranda weather history for previous 24 hours

 ConditionsComfort  
Time TempWeatherWind HumidityBarometerVisibility
1:00 AM
Thu, Jul 2
48 °FPartly cloudy.6 mph71%29.87 "Hg15 mi
12:00 AM50 °FPassing clouds.6 mph71%29.86 "Hg15 mi
11:00 PM
Wed, Jul 1
52 °FPartly cloudy.5 mph77%29.86 "Hg15 mi
10:00 PM52 °FPartly sunny.3 mph94%29.85 "Hg15 mi
9:00 PM57 °FPartly sunny.3 mph77%29.85 "Hg15 mi
8:00 PM57 °FBroken clouds.3 mph77%29.84 "Hg15 mi
7:00 PM59 °FBroken clouds.6 mph72%29.84 "Hg15 mi
6:00 PM55 °FBroken clouds.10 mph77%29.85 "Hg15 mi
5:00 PM55 °FBroken clouds.12 mph77%29.84 "Hg15 mi
4:00 PM52 °FLight rain. Mostly cloudy.9 mph94%29.83 "Hg15 mi
3:00 PM52 °FLight rain. Mostly cloudy.13 mph94%29.82 "Hg15 mi
2:00 PM52 °FLight rain. Fog.12 mph94%29.81 "Hg5 mi
1:00 PM50 °FLight rain. Fog.10 mph100%29.81 "Hg4 mi
12:00 PM50 °FLight rain. Fog.13 mph94%29.82 "Hg4 mi
11:53 AM48 °FLight rain. Fog.12 mph100%29.82 "Hg4 mi
11:00 AM48 °FLight rain. Low clouds.9 mph94%29.82 "Hg8 mi
10:00 AM48 °FLight rain. Low clouds.6 mph94%29.82 "Hg12 mi
9:00 AM46 °FLight rain. Low clouds.12 mph100%29.83 "Hg12 mi
8:00 AM48 °FLight rain. Low clouds.8 mph94%29.83 "Hg12 mi
7:00 AM48 °FLight rain. Low clouds.12 mph100%29.83 "Hg8 mi
6:00 AM50 °FLight rain. Low clouds.13 mph94%29.83 "Hg12 mi
5:00 AM50 °FLight rain. Low clouds.9 mph100%29.83 "Hg15 mi
4:00 AM50 °FLight rain. Fog.8 mph100%29.84 "Hg6 mi
3:00 AM52 °FLight rain. Fog.8 mph94%29.86 "Hg6 mi
2:00 AM54 °FLight rain. Fog.9 mphN/A29.86 "Hg5 mi
Weather by CustomWeather, © 2015

See weather overviewHow to use our weather pages